Ballina Observation History
Time Wind Speed Temp Pressure Rel. Hum Rain
15/10:00pm N 12-16 kts 23.5°c 1010.9 hPa 85% 0.0mm
15/09:30pm N 12-18 kts 23.7°c 1010.6 hPa 84% 0.0mm
15/09:00pm N 11-16 kts 23.5°c 1010.2 hPa 86% 0.0mm
15/08:30pm NNE 10-16 kts 23.4°c 1010.0 hPa 87% 0.0mm
15/08:00pm NNE 12-17 kts 23.6°c 1009.6 hPa 86% 0.0mm
15/07:30pm NNE 14-21 kts 23.8°c 1009.2 hPa 86% 0.0mm
15/07:00pm NNE 15-22 kts 24.1°c 1008.9 hPa 85% 0.0mm
15/06:30pm NNE 17-27 kts 24.6°c 1008.5 hPa 84% 0.0mm
15/06:24pm NNE 16-26 kts 24.8°c 1008.4 hPa 83% 0.0mm
15/06:00pm NNE 18-26 kts 25.3°c 1008.2 hPa 80% 0.0mm
15/05:30pm NNE 17-28 kts 25.7°c 1008.0 hPa 78% 0.0mm
15/05:00pm NNE 17-26 kts 26.1°c 1007.9 hPa 76% 0.0mm
15/04:43pm NNE 17-27 kts 26.3°c 1008.0 hPa 74% 0.0mm
15/04:30pm NNE 15-22 kts 26.9°c 1008.2 hPa 74% 0.0mm
15/04:10pm NNE 17-27 kts 26.7°c 1008.4 hPa 75% 0.0mm
15/04:00pm NNE 19-26 kts 26.2°c 1008.5 hPa 77% 0.0mm
15/03:35pm NNE 17-27 kts 26.6°c 1008.8 hPa 74% 0.0mm
15/03:30pm NNE 18-25 kts 26.2°c 1008.9 hPa 75% 0.0mm
15/03:00pm NE 19-25 kts 26.9°c 1009.2 hPa 72% 0.0mm
15/02:30pm NE 20-27 kts 27.5°c 1009.6 hPa 71% 0.0mm
15/02:00pm NE 15-21 kts 27.6°c 1010.1 hPa 66% 0.0mm
15/01:30pm NE 18-23 kts 27.6°c 1010.4 hPa 65% 0.0mm
15/01:00pm NE 16-21 kts 28.3°c 1011.0 hPa 65% 0.0mm
15/12:30pm NE 17-23 kts 27.4°c 1011.6 hPa 65% 0.0mm
15/12:00pm NE 16-20 kts 27.5°c 1012.2 hPa 66% 0.0mm
15/11:30am NE 15-19 kts 26.2°c 1012.8 hPa 65% 0.0mm
15/11:00am ENE 13-16 kts 27.5°c 1013.3 hPa 59% 0.0mm
15/10:30am ENE 7-12 kts 26.8°c 1013.5 hPa 62% 0.0mm
15/10:00am SE 7-11 kts 26.1°c 1013.9 hPa 64% 0.0mm
15/09:30am NW 4-6 kts 24.5°c 1014.1 hPa 63% 0.0mm
15/09:00am WSW 3-5 kts 24.0°c 1014.2 hPa 70% 0.0mm
15/08:30am W 1-4 kts 22.5°c 1014.5 hPa 74% 0.0mm
15/08:00am WNW 1-3 kts 19.7°c 1014.5 hPa 85% 0.0mm
15/07:30am CALM 0 kts 18.0°c 1014.4 hPa 98% 0.0mm
15/07:00am CALM 0 kts 16.4°c 1014.2 hPa 99% 0.0mm
15/06:30am N 1-3 kts 14.4°c 1014.1 hPa 100% 0.0mm
15/06:29am N 1-3 kts 14.4°c 1014.1 hPa 100% 0.0mm
15/06:00am CALM 0-3 kts 14.1°c 1013.7 hPa 100% 0.0mm
15/05:51am N 1-3 kts 13.9°c 1013.6 hPa 100% 0.0mm
15/05:30am CALM 0 kts 14.2°c 1013.4 hPa 100% 0.0mm
15/05:02am CALM 0 kts 14.7°c 1013.2 hPa 100% 0.0mm
15/05:00am CALM 0 kts 14.7°c 1013.2 hPa 100% 0.0mm
15/04:30am CALM 0 kts 15.4°c 1013.2 hPa 100% 0.0mm
15/04:07am CALM 0 kts 15.1°c 1013.2 hPa 98% 0.0mm
15/04:00am CALM 0 kts 15.3°c 1013.1 hPa 98% 0.0mm
15/03:51am CALM 0 kts 14.9°c 1013.1 hPa 98% 0.0mm
15/03:30am CALM 0 kts 15.3°c 1013.2 hPa 98% 0.0mm
15/03:00am CALM 0 kts 15.8°c 1013.3 hPa 97% 0.0mm
15/02:59am CALM 0 kts 15.8°c 1013.3 hPa 98% 0.0mm
15/02:30am N 3-4 kts 16.2°c 1013.5 hPa 97% 0.0mm
15/02:00am N 4-5 kts 17.1°c 1013.7 hPa 100% 0.0mm
15/01:30am CALM 0 kts 16.9°c 1014.0 hPa 99% 0.0mm
15/01:00am CALM 0 kts 17.3°c 1014.2 hPa 95% 0.0mm
15/12:30am N 3-4 kts 18.6°c 1014.5 hPa 94% 0.0mm
15/12:00am N 4-5 kts 18.9°c 1014.7 hPa 93% 0.0mm
Time Wind Speed Temp Pressure Rel. Hum Rain
14/11:30pm N 2-4 kts 19.3°c 1014.8 hPa 92% 0.0mm
14/11:00pm NNE 4-5 kts 20.0°c 1014.8 hPa 87% 0.0mm
14/10:30pm NNE 6-8 kts 20.4°c 1014.8 hPa 87% 0.0mm
14/10:00pm NNE 7-10 kts 20.6°c 1014.7 hPa 87% 0.0mm
14/09:30pm NNE 6-9 kts 20.4°c 1014.5 hPa 85% 0.0mm
14/09:00pm NE 7-9 kts 20.8°c 1014.4 hPa 85% 0.0mm
14/08:30pm NNE 7-11 kts 20.8°c 1014.0 hPa 82% 0.0mm
14/08:00pm NNE 8-11 kts 20.9°c 1013.7 hPa 80% 0.0mm
14/07:30pm NNE 9-13 kts 21.3°c 1013.3 hPa 77% 0.0mm
14/07:00pm NNE 10-15 kts 21.7°c 1012.8 hPa 74% 0.0mm
14/06:30pm NE 12-17 kts 22.3°c 1012.5 hPa 71% 0.0mm
14/06:00pm NE 13-19 kts 22.8°c 1012.2 hPa 69% 0.0mm
14/05:30pm NE 16-20 kts 23.4°c 1012.0 hPa 64% 0.0mm
14/05:00pm NE 15-20 kts 23.8°c 1012.0 hPa 63% 0.0mm
14/04:30pm NE 13-18 kts 24.9°c 1012.1 hPa 64% 0.0mm
14/04:00pm NE 15-19 kts 24.7°c 1012.3 hPa 65% 0.0mm
14/03:30pm NE 15-20 kts 24.5°c 1012.5 hPa 61% 0.0mm
14/03:00pm NE 15-19 kts 25.4°c 1012.7 hPa 62% 0.0mm
14/02:30pm NE 15-18 kts 25.2°c 1013.1 hPa 60% 0.0mm
14/02:00pm NE 14-18 kts 25.4°c 1013.4 hPa 59% 0.0mm
14/01:30pm NE 15-19 kts 25.9°c 1013.6 hPa 59% 0.0mm
14/01:00pm NE 13-18 kts 25.6°c 1013.8 hPa 57% 0.0mm
14/12:30pm ENE 13-17 kts 25.4°c 1014.4 hPa 55% 0.0mm
14/12:00pm ENE 14-16 kts 25.7°c 1014.9 hPa 56% 0.0mm
14/11:30am NE 13-17 kts 25.5°c 1015.2 hPa 58% 0.0mm
14/11:00am ENE 12-16 kts 25.1°c 1015.5 hPa 57% 0.0mm
14/10:30am NE 11-13 kts 24.7°c 1015.7 hPa 60% 0.0mm
14/10:00am NE 9-13 kts 25.3°c 1015.8 hPa 60% 0.0mm
14/09:30am NNE 7-9 kts 24.3°c 1016.0 hPa 60% 0.0mm
14/09:00am N 6-10 kts 23.0°c 1016.1 hPa 64% 0.0mm
14/08:30am N 7-10 kts 22.1°c 1016.1 hPa 70% 0.0mm
14/08:00am N 2-4 kts 19.8°c 1016.1 hPa 85% 0.0mm
14/07:30am N 2-3 kts 18.1°c 1015.8 hPa 90% 0.0mm
14/07:00am N 3-4 kts 16.3°c 1015.5 hPa 93% 0.0mm
14/06:30am N 2-4 kts 14.2°c 1015.2 hPa 96% 0.0mm
14/06:00am CALM 0 kts 13.3°c 1015.0 hPa 95% 0.0mm
14/05:30am CALM 0 kts 13.4°c 1014.7 hPa n/a 0.0mm
14/05:00am N 3-5 kts 13.9°c 1014.4 hPa 99% 0.0mm
14/04:30am CALM 0 kts 14.7°c 1014.2 hPa 94% 0.0mm
14/04:00am NE 3-4 kts 15.3°c 1014.2 hPa n/a 0.0mm
14/03:30am NE 3-4 kts 15.4°c 1014.4 hPa 100% 0.0mm
14/03:00am CALM 0 kts 15.9°c 1014.4 hPa 96% 0.0mm
14/02:30am CALM 0 kts 16.4°c 1014.4 hPa 93% 0.0mm
14/02:00am CALM 0 kts 17.5°c 1014.5 hPa 89% 0.0mm
14/01:30am CALM 0 kts 18.1°c 1014.7 hPa 89% 0.0mm
14/01:00am CALM 0 kts 18.1°c 1015.1 hPa 91% 0.0mm
14/12:30am CALM 0 kts 17.6°c 1015.1 hPa 94% 0.0mm
14/12:00am CALM 0 kts 17.0°c 1015.3 hPa 95% 0.0mm
Time Wind Speed Temp Pressure Rel. Hum Rain
13/11:30pm CALM 0 kts 16.0°c 1015.3 hPa 93% 0.0mm
13/11:00pm CALM 0 kts 16.6°c 1015.2 hPa 92% 0.0mm
13/10:30pm CALM 0 kts 16.4°c 1015.1 hPa 90% 0.0mm
13/10:00pm CALM 0 kts 16.9°c 1015.1 hPa 90% 0.0mm
13/09:30pm CALM 0 kts 17.2°c 1015.0 hPa 91% 0.0mm
13/09:00pm ESE 3 kts 18.3°c 1014.7 hPa 81% 0.0mm
13/08:30pm ESE 4-5 kts 19.2°c 1014.3 hPa 80% 0.0mm
13/08:00pm ESE 6-8 kts 20.5°c 1014.0 hPa 85% 0.0mm
13/07:30pm ESE 6-8 kts 20.8°c 1013.6 hPa 80% 0.0mm
13/07:00pm ESE 7-11 kts 21.1°c 1013.2 hPa 80% 0.0mm
13/06:30pm ESE 8-11 kts 21.4°c 1012.8 hPa 75% 0.0mm
13/06:00pm ESE 10-13 kts 21.7°c 1012.4 hPa 85% 0.0mm
13/05:30pm ESE 10-15 kts 22.2°c 1012.0 hPa 75% 0.0mm
13/05:00pm SE 12-16 kts 22.9°c 1011.8 hPa 67% 0.0mm
13/04:30pm SE 12-16 kts 22.9°c 1011.6 hPa 65% 0.0mm
13/04:00pm SE 11-16 kts 23.0°c 1011.6 hPa 62% 0.0mm
13/03:30pm SE 13-16 kts 23.7°c 1011.4 hPa 65% 0.0mm
13/03:00pm SSE 12-16 kts 23.1°c 1012.1 hPa 67% 0.0mm
13/02:30pm SSE 14-18 kts 23.1°c 1012.0 hPa 62% 0.0mm
13/02:00pm SSE 15-20 kts 24.1°c 1012.3 hPa 61% 0.0mm
13/01:30pm SSE 14-20 kts 24.6°c 1012.6 hPa 60% 0.0mm
13/01:00pm SSE 16-24 kts 24.9°c 1012.6 hPa 65% 0.0mm
13/12:30pm SSE 15-21 kts 23.8°c 1012.8 hPa 65% 0.0mm
13/12:00pm SSE 15-23 kts 24.2°c 1012.9 hPa 65% 0.0mm
13/11:30am S 15-21 kts 24.1°c 1013.0 hPa 67% 0.0mm
13/11:00am S 15-20 kts 24.1°c 1013.0 hPa 70% 0.0mm
13/10:30am S 12-19 kts 23.8°c 1013.2 hPa 72% 0.0mm
13/10:00am S 14-18 kts 24.5°c 1012.7 hPa 72% 0.0mm
13/09:30am S 16-23 kts 23.6°c 1012.3 hPa 76% 0.0mm
13/09:00am S 13-21 kts 23.8°c 1011.9 hPa 85% 0.0mm
13/08:30am S 14-19 kts 23.2°c 1011.5 hPa 91% 0.0mm
13/08:00am S 11-18 kts 22.9°c 1011.0 hPa 89% 0.0mm
13/07:30am S 13-21 kts 22.5°c 1010.3 hPa 93% 0.0mm
13/07:00am SSW 13-19 kts 21.9°c 1009.8 hPa 98% 0.0mm
13/06:59am SSW 13-19 kts 21.9°c 1009.8 hPa 96% 0.0mm
13/06:30am SSW 12-20 kts 21.2°c 1009.1 hPa 96% 0.0mm
13/06:00am SSW 11-17 kts 21.5°c 1008.4 hPa 85% 0.0mm
13/05:50am SSW 13-18 kts 21.4°c 1008.0 hPa 76% 0.0mm
13/05:30am NE 5-6 kts 16.2°c 1006.2 hPa 97% 0.0mm
13/05:00am CALM 0 kts 17.5°c 1005.7 hPa n/a 0.0mm
13/04:30am CALM 0 kts 18.5°c 1005.3 hPa n/a 0.0mm
13/04:00am N 3-5 kts 17.7°c 1005.2 hPa 95% 0.0mm
13/03:30am N 3-4 kts 19.0°c 1005.0 hPa 99% 0.0mm
13/03:00am N 1-4 kts 20.2°c 1005.0 hPa 90% 0.0mm
13/02:30am N 6-8 kts 21.5°c 1005.2 hPa 88% 0.0mm
13/02:00am N 3-7 kts 21.6°c 1005.5 hPa 86% 0.0mm
13/01:30am N 5-7 kts 22.0°c 1005.7 hPa 87% 0.0mm
13/01:00am N 10-14 kts 22.6°c 1005.9 hPa 88% 0.0mm
13/12:30am NNE 12-17 kts 22.7°c 1006.2 hPa 86% 0.0mm
13/12:00am N 13-17 kts 22.9°c 1006.6 hPa 87% 0.0mm